Regional Weather Roundup
Issued by NWS

Home | Current Version | Previous Version | Text Only | Print | Product List | Glossary Off
Versions: 1 2 3 4 5 6 7 8 9 10 11 12 13 14 15 16 17 18 19 20 21 22 23 24 25 26 27 28 29 30 31 32 33 34 35 36 37 38 39 40 41 42 43 44 45 46 47 48 49 50

000
ASUS43 KLOT 292000
RWRIL

ILLINOIS REGIONAL WEATHER ROUNDUP
NATIONAL WEATHER SERVICE CHICAGO/ROMEOVILLE IL
300 PM CDT SAT AUG 29 2015

NOTE: "FAIR" INDICATES FEW OR NO CLOUDS BELOW 12,000 FEET WITH NO
SIGNIFICANT WEATHER AND/OR OBSTRUCTIONS TO VISIBILITY.

* THESE STATIONS ARE NOT UNDER NWS QUALITY CONTROL. THEY ALSO MAY NOT
  REPORT WEATHER SUCH AS PRECIPITATION OR FOG.

ILZ001-002-007-009-015-016-024-292100-
NORTHWEST ILLINOIS

CITY           SKY/WX    TMP DP  RH WIND       PRES   REMARKS
MOLINE         CLOUDY    76  66  71 CALM      29.99S
STERLING*      CLOUDY   N/A N/A N/A CALM      29.99S
$$

ILZ003-004-008-010-011-017-018-292100-
NORTH CENTRAL ILLINOIS

CITY           SKY/WX    TMP DP  RH WIND       PRES   REMARKS
ROCKFORD       CLOUDY    70  64  81 N5        30.03S
$$

ILZ005-006-012>014-019>023-292100-
NORTHEAST ILLINOIS

CITY           SKY/WX    TMP DP  RH WIND       PRES   REMARKS
CHICAGO-OHARE  CLOUDY    69  66  90 W5        30.00F
CHICAGO-MIDWAY CLOUDY    76  64  66 SW12      29.99F
AURORA         CLOUDY    72  67  84 SW5       30.01F
WAUKEGAN       CLOUDY    66  64  93 CALM      30.01F FOG
DUPAGE AIRPORT CLOUDY    70  66  87 CALM      30.01S
WHEELING       CLOUDY    69  64  84 SW6       30.02S
NORTHERLY ISL    N/A     71  64  78 SE5         N/A
$$

LMZ740>746-292100-
SOUTHERN LAKE MICHIGAN

STATION/POSITION SKY/WX   TEMP    WIND        PRES    VSBY  WAVE
                          AIR SEA DIR/SP/G                  HT/PER
                          (F)     (DEG/KT/KT) (MB)    (MI)  (FT/S)
SOUTHERN BUOY              67 68  110/ 12/ 14 1016.6S         2/ 4
WILMETTE HARBOR            60 56  270/  4/  6   N/A           2/ 4
HARRISON CRIB              71     230/  4/  5   N/A
BURNHAM HARBOR             72     210/  3/ 11   N/A
BURNS HARBOR               73     180/  8/ 14 1016.9F
MICHIGAN CITY              71     160/ 11/ 13   N/A
MICHIGAN CITY 6N           71 71  190/ 10/ 14   N/A           1
ST. JOSEPH                 69 70  190/  4/  8   N/A           1/ 3
$$

ILZ025>027-034>036-040-047-049-050-058-095>099-292100-
WEST-CENTRAL ILLINOIS

CITY           SKY/WX    TMP DP  RH WIND       PRES   REMARKS
QUINCY         CLOUDY    79  67  66 W7        29.99S HX  81
$$

ILZ028>032-037-038-041>044-048-051>054-059>061-292100-
CENTRAL ILLINOIS

CITY           SKY/WX    TMP DP  RH WIND       PRES   REMARKS
DECATUR        CLOUDY    81  65  58 S14       30.01F HX  83
PEORIA         PTSUNNY   82  65  56 S3        29.99F HX  84
SPRINGFIELD    CLOUDY    78  67  68 S5        30.00F HX  80
TAYLORVILLE    NOT AVBL
$$

ILZ033-039-045-046-055>057-062-063-292100-
EAST-CENTRAL ILLINOIS

CITY           SKY/WX    TMP DP  RH WIND       PRES   REMARKS
CHAMPAIGN      CLOUDY    80  67  64 S7        30.02F HX  82
MATTOON        CLOUDY    79  67  66 S8        30.02F HX  81
$$

ILZ079-100>102-292100-
SOUTHWEST ILLINOIS

CITY           SKY/WX    TMP DP  RH WIND       PRES   REMARKS
CAHOKIA*       CLOUDY    81  65  58 S8        30.01F HX  83
$$

ILZ064>066-069>071-074>076-080>082-084>086-088>090-092>094-292100-
SOUTH-CENTRAL ILLINOIS

CITY           SKY/WX    TMP DP  RH WIND       PRES   REMARKS
CARBONDALE     CLOUDY    79  66  64 SW8       30.04F HX  81
MARION         CLOUDY    82  66  57 SW9       30.05F HX  85
MT. VERNON     CLOUDY    79  66  65 SW6       30.05F HX  81
$$

ILZ067-068-072-073-078-083-087-091-292100-
SOUTHEAST ILLINOIS

CITY           SKY/WX    TMP DP  RH WIND       PRES   REMARKS
LAWRENCEVILLE  CLOUDY    83  64  52 SW8       30.05F HX  84
ROBINSON*      CLOUDY    81  69  66 S7        30.05F HX  83
$$

ABBREVIATIONS USED IN REMARKS
   TC - TEMPERATURE IN CELSIUS
  WCI - WIND CHILL INDEX
   HX - HEAT INDEX
  VSB - VISIBILITY
$$




USA.gov is the U.S. government's official web portal to all federal, state and local government web resources and services.